Regional Weather Roundup
Issued by NWS Newport/Morehead, NC

Current Version | Previous Version | Graphics & Text | Print | Product List | Glossary Off
Versions: 1 2 3 4 5 6 7 8 9 10 11 12 13 14 15 16 17 18 19 20 21 22 23 24 25 26 27 28 29 30 31 32 33 34 35 36 37 38 39 40 41 42 43 44 45 46 47 48 49 50

000
ASUS42 KMHX 020210
RWRMHX
WEATHER ROUNDUP FOR EASTERN NORTH CAROLINA
NATIONAL WEATHER SERVICE NEWPORT/MOREHEAD CITY NC
1000 PM EDT MON SEP 01 2014

NOTE: "FAIR" INDICATES FEW OR NO CLOUDS BELOW 12,000 FEET
WITH NO SIGNIFICANT WEATHER AND/OR OBSTRUCTIONS TO VISIBILITY

NCZ015>017-031-032-045>047-102-103-020300-
NORTH COAST

CITY           SKY/WX    TMP DP  RH WIND       PRES   REMARKS
EDENTON        MOCLDY    82  76  84 SW12      30.04S
ELIZABETH CITY MOCLDY    82  76  81 S12       30.03R
KITTY HAWK     MOCLDY    81  75  82 SW9       30.03F
MANTEO         MOCLDY    81  76  85 SW14      30.04F

$$

NCZ045>047-081-094-103-104-020300-
CENTRAL COAST

CITY           SKY/WX    TMP DP  RH WIND       PRES   REMARKS
FRISCO         PTCLDY    80  77  90 SW13G21   30.07S
SWANQUARTER      N/A     82 N/A N/A SW12G18   30.03S

$$

NCZ095-097-098-100-101-020300-
SOUTHERN COAST

CITY           SKY/WX    TMP DP  RH WIND       PRES   REMARKS
BEAUFORT       PTCLDY    82  77  84 SW12      30.08R
CEDAR ISLAND     N/A     81 N/A N/A S5G10     30.12S
JACKSONVILLE   PTCLDY    79  75  87 S5        30.07R
NEWPORT        NOT AVBL
PINEY ISLAND   PTCLDY    81  78  91 S7        30.07S
WILMINGTON     PTCLDY    80  75  84 S6        30.08R


$$

NCZ011>013-027>030-043-044-078>080-089-090>093-098-020300-
COASTAL PLAIN

CITY           SKY/WX    TMP DP  RH WIND       PRES   REMARKS
AHOSKIE        PTCLDY    76  74  93 CALM      30.03F
CLINTON        MOCLDY    81  76  84 SW3       30.08R
ELIZABETHTOWN  MOCLDY    80  75  84 S6        30.08R
GOLDSBORO      MOCLDY    81  79  94 S5        30.05R
GREENVILLE     PTCLDY    81  77  89 SW12      30.07R
HAVELOCK       MOCLDY    80  75  84 S5        30.09R
KENANSVILLE    MOCLDY    78  73  82 CALM      30.08S
KINSTON        PTCLDY    81  75  83 S7        30.07R
NEW BERN       PTCLDY    81  76  84 S7        30.08R
RICHLANDS      PTCLDY    77  73  88 SW6       30.08R
ROANOKE RAPIDS NOT AVBL
ROCKY MOUNT    PTCLDY    76  73  91 S5        30.05R
WASHINGTON     PTCLDY    80  75  85 S6        30.06S
WHITEVILLE     PTCLDY    80  75  85 S3        30.08R

$$

AMZ130-135-150-152-154-156-158-170-250-252-270-ANZ085-086-088-633-658-670-020300-
MARINE OBSERVATIONS

STATION/POSITION TIME  TEMP    WIND        PRES    WAVE   SWELL
                       AIR SEA DIR/SP/G            HT/PER HT/PER
                 (UTC) (F)     (DEG/KT/KT) (MB)    (FT/S) (FT/S)
CHESAPEAKE LIGHT 0100   81     200/ 19/ 20 1016.2
BUOY 44014       0200   80 78  210/ 16/ 19 1016.2    3/ 8   2/ 8
DUCK             0200   82 75  200/ 11/ 16 1016.0
2E DUCK          0200                        N/A     2/12   2/12
OREGON INLET     0200   82 85  210/ 17/ 20 1017.4
BUOY 44095       0200      80                N/A     3/11   2/11
20E OREGON INLET NOT AVBL
HATTERAS CG      0200   82 84  220/ 10/ 15 1018.8
DIAMOND BUOY     0200   82     200/ 16/ 19 1018.2    4/ 4   2/10
CAPE LOOKOUT     0100   81     220/  8/ 10 1018.4
BEAUFORT LAB     0200   82 84  210/  8/ 12 1018.2
30 SE NEW RIVER  0200   83 82  220/ 10/ 14 1019.2    3/ 8   2/ 8
5 SE WRIGHTSVILL 0100   79 83  220/ 14/ 17   N/A
BUOY 41002       0109   82 84  210/ 10/ 12 1021.3    3/12   3/12
BUOY 41004       0200   83 84  180/  6/  8 1019.0    2/ 8   2/ 8

$$


USA.gov is the U.S. government's official web portal to all federal, state and local government web resources and services.